This is the latest recevied weather packets stored in our database for station/object K8JCL-13. If no packets are shown the sender has not sent any weather packets the latest 10 day(s).
| Time | Temp. | Humidity | Pressure | Rain* | Wind** | Luminosity | Snow |
|---|---|---|---|---|---|---|---|
| 1777384401 | 16.11° C | 99% | 1013.1 hPa | 0 mm | - | 54 W/m² | - |
| 1777384097 | 16.11° C | 99% | 1013.1 hPa | 0 mm | - | 86 W/m² | - |
| 1777383793 | 16.11° C | 99% | 1013.2 hPa | 0 mm | - | 90 W/m² | - |
| 1777383489 | 16.11° C | 99% | 1013.1 hPa | 0 mm | - | 64 W/m² | - |
| 1777383185 | 16.11° C | 99% | 1013.1 hPa | 0 mm | - | 89 W/m² | - |
| 1777382883 | 16.11° C | 99% | 1013.1 hPa | 0 mm | - | 80 W/m² | - |
| 1777382578 | 15.56° C | 99% | 1012.8 hPa | 0 mm | - | 55 W/m² | - |
| 1777382274 | 15.56° C | 99% | 1012.8 hPa | 0 mm | - | 54 W/m² | - |
| 1777381970 | 15.56° C | 99% | 1012.5 hPa | 0 mm | - | 54 W/m² | - |
| 1777381660 | 15.56° C | 99% | 1012.5 hPa | 0 mm | - | 68 W/m² | - |
| 1777381356 | 15.56° C | 99% | 1012.2 hPa | 0 mm | - | 32 W/m² | - |
| 1777381052 | 15.56° C | 99% | 1012.5 hPa | 0 mm | - | 35 W/m² | - |
| 1777380749 | 15.56° C | 99% | 1012.4 hPa | 0 mm | - | 31 W/m² | - |
| 1777380446 | 15.56° C | 99% | 1012.4 hPa | 0 mm | - | 31 W/m² | - |
| 1777380143 | 15.56° C | 99% | 1012.3 hPa | 0 mm | - | 37 W/m² | - |
| 1777379839 | 15.56° C | 99% | 1012.2 hPa | 0 mm | - | 43 W/m² | - |
| 1777379534 | 15.56° C | 99% | 1012.1 hPa | 0 mm | - | 34 W/m² | - |
| 1777379229 | 15.56° C | 99% | 1011.8 hPa | 0 mm | - | 32 W/m² | - |
| 1777378924 | 15.56° C | 99% | 1011.9 hPa | 0 mm | - | 35 W/m² | - |
| 1777378317 | 15° C | 99% | 1011.6 hPa | 0 mm | - | 30 W/m² | - |
| 1777378016 | 15° C | 99% | 1011.7 hPa | 0 mm | - | 22 W/m² | - |
| 1777377710 | 15° C | 99% | 1011.6 hPa | 0 mm | - | 16 W/m² | - |
| 1777377405 | 15° C | 99% | 1011.5 hPa | 0 mm | - | 17 W/m² | - |
| 1777377102 | 15° C | 99% | 1011.7 hPa | 0 mm | - | 13 W/m² | - |
| 1777376799 | 15° C | 99% | 1011.4 hPa | 0 mm | - | 12 W/m² | - |
* Rain latest hour (hover to see other rain measurements)
** Current wind speed in m/s (hover to see current wind gust speed)